Regional Weather Roundup
Issued by NWS

Home | Current Version | Previous Version | Graphics & Text | Print | Product List | Glossary On
Versions: 1 2 3 4 5 6 7 8 9 10 11 12 13 14 15 16 17 18 19 20 21 22 23 24 25 26 27 28 29 30 31 32 33 34 35 36 37 38 39 40 41 42 43 44 45 46 47 48 49 50
617
ASUS43 KLMK 242010
RWRKY
KENTUCKY REGIONAL WEATHER ROUNDUP
NATIONAL WEATHER SERVICE LOUISVILLE KY
300 PM EST FRI NOV 24 2017

NOTE "FAIR" INDICATES FEW OR NO CLOUDS BELOW 12,000 FEET
WITH NO SIGNIFICANT WEATHER AND/OR OBSTRUCTIONS TO VISIBILITY.

KYZ001>023-026-027-061>063-070>075-242100-
WESTERN AND SOUTH CENTRAL KENTUCKY

CITY           SKY/WX    TMP DP  RH WIND       PRES   REMARKS
PADUCAH        SUNNY     62  31  31 S9G17     29.84F
HENDERSON      CLOUDY    60  33  36 S15       29.83F
OWENSBORO      MOSUNNY   61  32  33 SW17      29.84F
HOPKINSVILLE   SUNNY     61  24  24 S12       29.87F
BOWLING GREEN  MOSUNNY   60  24  25 SW12      29.90F
GLASGOW        SUNNY     60  22  23 SW9       29.89F
$$

KYZ024-025-028>034-038-045-046-053-242100-
NORTH CENTRAL KENTUCKY

CITY           SKY/WX    TMP DP  RH WIND       PRES   REMARKS
LOUISVILLE/SDF PTSUNNY   58  24  27 S9        29.84F
LOUISVILLE/LOU SUNNY     59  27  29 S13       29.85F
FORT KNOX      MOSUNNY   58  26  28 S13       29.84F
$$

KYZ035>037-039>044-047>052-055>060-089>105-242100-
NORTHEAST KENTUCKY

CITY           SKY/WX    TMP DP  RH WIND       PRES   REMARKS
LEXINGTON      SUNNY     56  25  30 SW13      29.88F
COVINGTON      MOSUNNY   56  28  34 S17       29.82F
FRANKFORT      MOSUNNY   58  24  27 SW12      29.86F
$$

KYZ054-064>069-076>088-106>120-242100-
SOUTHEAST KENTUCKY

CITY           SKY/WX    TMP DP  RH WIND       PRES   REMARKS
JACKSON        SUNNY     62  27  26 CALM      29.90F
LONDON         SUNNY     61  29  29 SW9       29.90F
SOMERSET       SUNNY     59  27  29 W9        29.92F
MIDDLESBORO    SUNNY     60  35  40 S7        29.92F
MONTICELLO     CLEAR     59  34  39 W14       29.92F
$$





USA.gov is the U.S. government's official web portal to all federal, state and local government web resources and services.